Change the Weather History Date:

Saturday, July 20, 2013

  Actual Average Record
Temperature  
Mean Temperature 78 °F -  
Max Temperature 97 °F - - ()
Min Temperature 59 °F - - ()
Cooling Degree Days 13    
Growing Degree Days 28 (Base 50)    
Moisture  
Dew Point 45 °F    
Average Humidity 32    
Maximum Humidity 71    
Minimum Humidity 6    
Precipitation  
Precipitation 0.00 in - - ()
Sea Level Pressure  
Sea Level Pressure 29.82 in    
Wind  
Wind Speed 3 mph ()    
Max Wind Speed 6 mph    
Max Gust Speed -    
T = Trace of Precipitation, MM = Missing Value Source: Averaged Metar Reports

Daily Weather History Graph

Daily Weather History Graph

Search for Another Location

Airport or City:

Trip Planner

Search our weather history database for the weather conditions in past years. The results will help you decide how hot, cold, wet, or windy it might be!

Date:

Astronomy

Jul. 20, 2013 Rise Set
Actual Time 5:15 AM PDT 8:51 PM PDT
Civil Twilight 4:35 AM PDT 9:31 PM PDT
Nautical Twilight 3:42 AM PDT 10:24 PM PDT
Astronomical Twilight 2:26 AM PDT 11:38 PM PDT
Moon 6:58 PM PDT (7/20) 3:01 AM PDT (7/20)
Length of Visible Light 16h 55m
Length of Day
15h 36m
Waxing Gibbous, 94% of the Moon is Illuminated
Jul 20
Waxing Gibbous
Jul 22
Full
Jul 29
Last Quarter
Aug 6
New
Aug 14
First Quarter

Hourly Weather History & Observations

Time (PDT) Temp. Heat Index Dew Point Humidity Pressure Visibility Wind Dir Wind Speed Gust Speed Precip Events Conditions
12:00 AM 78.6 °F - 50.4 °F 37% 29.88 in - North 5.8 mph - N/A   Unknown
1:00 AM 73.8 °F - 50.9 °F 45% 29.88 in - North 2.3 mph - N/A   Unknown
2:00 AM 73.6 °F - 47.7 °F 40% 29.89 in - ENE 5.8 mph - N/A   Unknown
3:00 AM 67.6 °F - 47.5 °F 48% 29.90 in - ENE 3.5 mph - N/A   Unknown
4:00 AM 65.1 °F - 47.8 °F 54% 29.90 in - ENE 2.3 mph - N/A   Unknown
5:00 AM 64 °F - 47 °F 44% 29.91 in - NE 1.2 mph - -  
5:00 AM 63.9 °F - 47.5 °F 55% 29.91 in - NE 1.2 mph - N/A   Unknown
6:00 AM 61.9 °F - 48.2 °F 61% 29.92 in - NE 2.3 mph - N/A   Unknown
7:00 AM 62.2 °F - 52.7 °F 71% 29.92 in - ENE 1.2 mph - N/A   Unknown
8:00 AM 69.3 °F - 49.3 °F 49% 29.92 in - ENE 1.2 mph - N/A   Unknown
9:00 AM 75.2 °F - 49.8 °F 41% 29.91 in - SSW 1.2 mph - N/A   Unknown
10:00 AM 77.9 °F - 41.9 °F 28% 29.89 in - SW 2.3 mph - N/A   Unknown
11:00 AM 82 °F - 44 °F 16% 29.86 in - WSW 2.3 mph - -  
11:00 AM 82.4 °F - 43.9 °F 26% 29.86 in - WSW 2.3 mph - N/A   Unknown
12:00 PM 84.7 °F - 41.9 °F 22% 29.84 in - SSW 3.5 mph - N/A   Unknown
1:00 PM 89.1 °F - 43.7 °F 21% 29.81 in - SE 2.3 mph - N/A   Unknown
2:00 PM 91.4 °F - 40.1 °F 17% 29.80 in - SE 3.5 mph - N/A   Unknown
3:00 PM 93.4 °F - 38.1 °F 14% 29.78 in - South 3.5 mph - N/A   Unknown
4:00 PM 94.8 °F - 35.4 °F 12% 29.75 in - SSW 4.6 mph - N/A   Unknown
5:00 PM 97 °F - 37 °F 6% 29.73 in - SW 3.5 mph - -  
5:00 PM 96.6 °F - 37.2 °F 13% 29.73 in - SW 3.5 mph - N/A   Unknown
6:00 PM 95.2 °F - 34.9 °F 12% 29.70 in - SSE 2.3 mph - N/A   Unknown
7:00 PM 93.9 °F - 48.6 °F 21% 29.69 in - North 1.2 mph - N/A   Unknown
8:00 PM 86.7 °F 84.6 °F 53.1 °F 31% 29.69 in - NNW 3.5 mph - N/A   Unknown
9:00 PM 82.0 °F - 52.2 °F 35% 29.69 in - North 3.5 mph - N/A   Unknown
10:00 PM 86.0 °F - 46.0 °F 25% 29.71 in - NW 5.8 mph - N/A   Unknown
11:00 PM 85 °F - 45 °F 16% 29.71 in - NW 5.8 mph - -  
11:00 PM 84.6 °F - 45.3 °F 25% 29.71 in - NW 5.8 mph - N/A   Unknown